Theta_e
305 304 301 302 305 307 307 307 307 307 307 308 309 311 312 313 313 313 313 312 311 312 313 313 313 313 312 313 313 313 313 312 312 308 308 307 308 309 308 308 307 308 308
305 304 303 300 303 307 307 307 307 307 308 308 309 312 313 313 313 313 314 314 313 313 313 313 313 312 312 312 313 312 312 312 312 309 307 306 307 307 307 307 307 307 306
305 304 304 301 302 306 307 307 308 308 308 308 309 312 313 313 313 313 314 314 313 313 313 314 314 313 312 313 313 312 312 311 311 311 308 306 306 306 306 306 305 306 305
305 304 304 303 301 305 307 307 308 309 309 308 309 311 313 314 313 314 314 313 313 313 313 313 313 313 312 313 312 311 311 311 310 310 309 307 307 305 304 306 305 304 304
304 304 304 303 301 303 306 308 308 310 310 309 309 310 313 314 314 313 313 313 313 313 313 313 313 313 312 312 312 311 312 310 310 310 309 308 307 306 305 304 305 303 301
304 304 304 303 302 302 305 308 308 309 310 310 309 310 312 314 314 313 313 313 314 313 313 313 313 312 312 312 312 311 311 311 311 310 310 309 308 306 304 304 304 303 302
303 303 303 303 302 302 304 307 308 309 310 310 309 310 314 314 314 314 313 313 313 313 313 312 313 312 312 311 311 312 312 312 312 312 311 311 309 309 307 305 304 304 302
303 303 303 302 302 301 303 306 307 309 309 309 309 310 314 314 314 313 314 313 313 313 313 312 311 312 311 312 312 312 312 313 313 312 311 311 310 309 307 306 305 302 300
302 302 302 302 302 301 303 306 307 309 308 308 309 312 313 312 312 313 313 313 312 312 312 311 312 312 312 312 312 312 314 314 313 312 311 310 309 308 306 304 303 301 299
301 301 301 302 302 301 303 306 309 308 308 308 309 313 313 313 312 312 313 312 312 312 312 312 312 313 313 312 312 313 315 314 313 312 310 307 306 305 304 303 303 301 300
302 301 301 301 301 300 302 306 309 308 309 309 311 311 314 314 312 312 312 312 312 313 313 314 314 314 314 314 314 314 315 314 312 309 308 307 305 304 303 302 301 301 301
304 301 301 301 301 300 302 306 310 308 310 310 310 313 315 314 313 314 313 312 312 312 312 313 313 313 315 314 314 314 313 312 310 308 307 306 305 304 303 302 301 300 299
307 303 301 300 301 300 301 305 309 309 310 311 312 312 314 314 314 314 314 314 314 314 315 313 313 314 315 314 313 314 313 312 310 308 306 305 304 303 302 302 301 301 300
304 307 303 301 300 300 300 303 307 309 309 310 311 312 312 312 313 314 314 314 314 314 315 314 315 314 315 314 313 313 313 312 310 308 306 304 303 302 302 301 300 300 299
299 303 306 304 301 300 300 300 303 308 308 309 311 310 311 311 311 312 313 313 314 314 314 314 314 314 314 314 314 313 313 312 310 308 305 303 302 301 300 299 298 298 298
296 297 301 305 305 302 300 299 300 302 307 308 310 309 309 310 309 310 311 312 312 313 313 313 314 314 314 315 315 314 313 312 310 307 305 302 301 300 299 298 297 296 296
295 295 295 298 303 305 304 302 301 300 301 306 308 308 309 308 309 309 309 310 311 311 312 311 314 314 315 315 314 314 313 312 310 307 304 302 301 299 298 297 296 297 297
292 292 293 294 296 300 304 305 302 302 301 301 303 306 307 307 308 308 308 308 310 310 311 312 312 313 314 313 314 313 312 312 310 307 304 302 300 299 297 297 299 299 296
291 291 292 292 293 295 298 303 304 304 302 302 302 304 306 306 306 306 307 308 308 310 312 312 313 313 313 312 313 312 313 312 310 306 303 302 300 297 296 298 300 299 293
291 291 291 292 292 292 294 296 298 303 304 302 301 302 304 305 304 305 305 305 307 308 309 310 311 312 313 312 311 311 310 309 309 304 303 302 300 297 295 298 299 297 291
290 290 291 292 292 292 292 293 295 296 300 303 303 301 300 302 303 302 302 304 305 306 308 309 310 311 311 310 310 309 309 309 308 305 304 302 301 298 295 298 298 297 291
290 290 290 290 291 292 292 292 292 293 295 296 299 303 301 300 300 301 301 302 304 305 305 307 308 311 311 309 309 308 309 309 308 304 304 303 300 297 295 297 298 297 292
290 290 290 290 290 290 291 291 292 292 292 293 295 296 299 302 302 301 301 302 302 304 305 305 306 307 309 309 309 308 308 309 307 304 305 303 301 297 295 298 298 298 294
288 288 289 290 290 290 290 290 290 291 292 292 292 293 295 296 299 302 302 301 301 302 303 304 305 306 308 309 308 308 307 307 306 303 302 301 300 295 296 298 298 298 295
288 288 287 287 287 288 287 288 289 290 291 291 292 292 292 292 294 296 300 301 301 300 302 303 304 305 305 307 308 308 308 307 305 303 301 300 298 295 297 298 298 298 295
287 287 287 287 287 286 286 285 285 286 288 289 291 291 292 292 292 292 293 298 300 301 300 300 301 302 303 305 306 306 306 305 304 302 301 299 296 297 298 298 298 297 296
Wind_Speed
8 8 7 6 7 8 6 6 5 4 4 5 4 3 2 3 7 9 12 12 12 12 15 19 16 16 23 32 28 23 22 31 36 30 28 24 23 20 18 14 12 8 5
10 9 8 7 8 10 8 7 6 5 5 6 5 4 3 4 7 10 10 11 11 13 12 17 18 21 24 31 20 12 14 25 26 33 29 25 22 18 16 14 12 8 7
14 11 9 8 8 11 10 9 7 6 7 7 6 6 3 3 10 10 12 11 14 13 14 19 22 22 28 27 16 10 14 25 28 28 29 26 22 18 16 14 11 10 8
17 14 11 10 8 11 12 10 9 7 8 9 9 8 5 7 9 11 15 13 14 15 15 18 21 27 30 24 19 15 16 21 24 26 26 26 23 21 16 16 15 12 9
18 17 12 12 10 12 13 12 10 8 8 10 11 11 10 11 10 14 14 12 14 18 19 20 22 21 23 21 18 17 16 22 25 27 29 27 26 24 22 20 17 15 12
18 16 15 14 12 12 13 13 12 9 9 12 13 12 12 12 11 15 15 12 13 22 24 19 22 22 22 15 17 17 18 19 23 28 29 28 29 26 24 21 19 17 11
16 15 16 15 13 12 13 14 13 10 9 13 15 15 12 12 14 16 16 15 15 22 18 16 21 22 22 23 21 17 14 14 14 19 24 28 28 25 23 22 19 13 8
16 15 15 15 13 12 13 13 13 11 10 12 15 17 14 14 14 14 15 16 15 20 22 18 20 26 25 24 20 19 15 14 15 15 20 19 22 21 18 16 17 14 12
15 15 14 14 13 11 12 12 12 11 11 13 16 18 15 15 15 15 16 16 18 20 21 22 23 24 24 22 20 16 14 15 14 15 16 16 17 18 18 20 21 19 16
10 13 14 15 13 11 11 12 10 10 10 12 17 19 16 17 17 19 18 20 21 22 20 20 20 18 18 18 16 14 13 15 18 19 20 22 22 21 20 19 18 20 18
3 9 12 14 14 12 12 12 10 11 11 12 15 17 17 18 18 21 22 22 23 21 18 20 19 18 18 18 18 14 13 16 18 18 18 20 23 24 24 22 21 16 14
8 2 9 13 14 13 12 12 13 14 13 16 14 16 19 20 20 21 23 25 23 23 22 20 19 18 18 18 17 15 16 16 17 18 18 21 22 22 23 23 22 22 21
16 9 3 10 14 15 14 14 14 14 15 19 17 14 14 22 19 24 23 23 24 22 19 22 21 20 20 19 19 21 21 21 21 20 18 19 20 20 22 23 23 24 23
15 13 9 4 11 14 15 16 16 16 17 18 20 18 16 16 19 23 25 25 25 24 22 21 23 24 23 21 24 24 25 23 22 20 18 19 21 23 24 23 23 23 23
12 12 12 10 5 11 15 16 18 19 18 18 20 21 20 20 18 20 24 24 25 26 26 26 26 25 26 25 24 26 28 28 25 24 22 22 23 24 25 24 23 24 25
11 11 10 10 8 7 10 15 17 19 21 21 21 24 24 26 24 19 19 25 30 32 32 33 32 31 31 29 29 30 32 32 29 27 24 22 23 24 25 24 24 23 23
15 12 11 10 9 8 7 12 15 17 21 24 24 22 24 24 27 26 24 23 23 26 32 35 38 36 34 34 33 33 35 36 32 29 25 23 23 24 25 25 25 25 24
19 16 15 13 11 10 10 10 11 16 20 22 25 25 21 21 25 24 25 27 28 28 27 30 37 38 36 37 35 35 36 37 35 32 29 27 26 26 27 27 27 27 27
20 19 17 16 15 14 13 12 11 12 15 21 25 28 24 19 16 15 22 25 26 27 29 30 29 33 37 37 36 38 36 36 36 33 31 29 28 28 28 27 27 28 27
18 18 18 17 17 18 16 16 14 13 14 15 18 24 27 28 28 28 29 21 22 27 30 31 30 31 32 32 36 40 40 37 36 33 31 29 30 29 29 28 29 29 28
21 20 19 19 18 17 19 20 20 17 17 16 15 15 21 26 27 29 25 32 27 23 29 32 34 34 33 33 35 38 38 36 33 33 33 31 31 31 31 29 29 29 29
23 23 22 22 22 20 19 20 23 23 23 20 19 16 16 21 25 27 26 28 31 27 27 30 33 33 33 34 35 35 36 35 35 37 34 32 33 33 32 32 32 32 32
22 22 22 22 22 23 23 21 21 24 27 26 24 22 21 21 22 23 23 23 27 30 27 25 29 33 33 33 35 39 44 43 38 37 34 33 34 35 35 34 35 36 37
23 22 22 23 23 23 24 24 24 24 26 28 29 28 27 25 25 23 23 23 25 29 32 28 27 31 35 37 36 37 39 42 39 39 36 33 35 37 37 37 37 38 38
18 21 22 24 25 25 24 23 24 26 27 28 29 31 31 30 29 28 26 22 23 26 31 35 34 31 34 39 41 38 39 42 41 39 37 35 36 37 38 38 38 39 40
17 18 20 22 24 26 28 30 30 29 27 28 29 31 32 31 32 32 30 29 25 24 27 32 37 38 35 35 39 40 41 41 42 39 37 37 39 39 39 40 40 41 42
Wind_Direction
232 239 240 233 222 216 207 207 205 199 207 213 211 245 212 167 148 131 139 147 162 160 165 186 192 183 168 168 161 166 164 163 150 141 147 151 154 159 158 156 145 146 118
231 239 242 236 222 218 213 211 213 204 216 203 205 216 229 191 176 163 154 154 167 164 149 166 171 175 174 172 155 154 180 180 178 155 152 157 158 160 162 165 162 148 131
234 233 240 239 231 222 215 219 224 213 215 206 205 207 208 188 174 172 166 151 164 159 159 153 163 172 174 171 174 173 179 175 169 168 165 165 163 170 175 170 163 158 150
239 235 235 240 229 221 219 220 228 222 219 212 203 203 202 194 177 167 173 162 160 175 180 172 174 175 177 183 187 184 184 192 187 176 176 173 175 177 183 178 170 162 161
240 237 235 236 231 223 218 221 227 227 223 212 204 196 201 194 198 177 177 168 160 172 171 171 181 184 188 191 192 192 177 182 187 188 184 186 186 185 189 185 182 170 154
231 232 229 233 235 229 215 221 228 236 237 214 204 203 198 198 200 190 191 184 171 167 162 178 183 182 188 191 185 182 180 175 180 189 195 197 196 195 192 192 188 175 164
231 227 225 227 232 235 218 225 230 235 232 214 207 199 187 203 195 198 196 193 187 184 180 181 181 180 175 175 173 177 181 192 216 211 202 207 204 204 199 193 193 196 216
216 218 222 223 225 234 225 224 235 235 238 220 203 191 189 195 195 193 199 202 198 189 191 192 180 173 177 179 185 189 199 205 212 206 218 224 215 206 201 201 200 201 196
215 212 215 220 222 227 232 224 240 229 244 217 198 186 191 195 194 190 191 189 177 181 181 179 179 178 183 192 198 204 205 196 194 188 187 191 197 201 202 200 199 203 202
216 219 215 209 214 228 230 227 233 234 212 221 196 190 194 195 191 185 189 191 183 180 183 185 188 195 196 199 210 220 222 208 196 188 183 178 186 194 198 204 217 211 216
216 218 215 217 209 212 225 230 225 209 212 218 197 193 199 200 194 193 194 198 198 199 194 195 198 202 206 209 210 213 212 201 190 192 191 190 188 191 196 200 209 222 228
42 226 219 216 218 220 218 217 230 216 213 207 223 208 206 204 204 201 201 203 209 218 223 220 217 221 212 209 207 206 201 204 200 193 197 195 197 197 200 203 207 209 217
30 21 261 235 227 223 217 214 216 222 219 211 226 215 216 209 215 210 208 208 209 217 223 228 230 217 209 211 209 203 207 204 207 205 206 205 202 203 203 205 208 210 216
23 24 21 281 242 241 238 219 209 224 227 223 224 235 224 222 217 219 219 217 216 216 215 215 216 218 215 217 215 210 212 213 213 214 212 208 205 205 208 211 214 215 214
9 10 13 9 298 247 240 241 237 223 220 231 238 242 245 240 245 230 227 227 229 224 224 225 223 221 223 225 223 221 216 213 210 212 214 215 213 211 212 213 214 217 218
339 346 353 355 351 311 266 250 244 240 237 229 229 241 244 248 252 249 242 232 232 230 230 232 234 233 230 230 230 228 220 218 213 213 214 219 222 219 217 217 217 219 221
313 313 317 326 329 334 310 270 254 248 243 241 246 245 248 249 251 254 251 248 246 242 238 238 236 234 235 233 232 234 223 221 216 215 219 223 224 226 224 222 222 219 215
296 297 294 296 303 307 310 304 283 258 247 247 247 252 255 257 252 255 257 250 248 241 234 241 235 239 241 237 233 229 223 220 216 217 219 224 225 226 224 223 223 221 212
295 293 290 282 280 284 290 292 293 283 268 253 246 244 249 259 259 266 264 258 254 248 241 237 238 242 238 240 236 228 222 222 219 219 221 225 227 226 224 224 221 218 215
294 294 292 287 278 272 274 280 283 286 283 277 260 249 249 254 264 267 264 272 265 258 246 240 241 240 238 237 238 234 225 219 219 221 227 228 229 228 227 227 222 219 217
283 286 288 288 286 279 271 269 273 275 274 277 277 267 250 254 256 263 256 258 266 267 253 242 235 238 240 240 237 233 225 218 221 226 230 230 229 228 225 225 224 222 221
282 280 279 279 280 280 277 271 268 270 270 272 275 274 266 257 256 260 260 256 254 261 262 247 244 241 247 245 236 225 221 222 226 227 232 232 230 229 226 225 222 221 220
285 282 278 276 275 276 276 274 270 270 271 271 271 271 269 270 268 269 266 264 256 250 255 256 249 242 243 243 238 233 226 222 228 232 235 234 231 229 226 227 225 221 219
287 286 283 281 279 277 274 273 272 269 269 272 272 269 268 269 269 272 272 268 261 253 248 250 251 250 245 245 244 237 236 230 229 234 237 239 238 233 229 228 227 224 222
291 289 287 284 281 280 281 281 278 274 270 268 271 274 272 269 267 267 267 270 270 257 250 247 247 247 251 247 244 240 238 234 232 233 238 238 237 236 236 234 229 222 220
306 300 295 290 285 281 278 276 276 277 278 276 272 270 272 273 271 267 266 264 268 270 263 253 251 246 247 249 250 244 241 235 229 230 233 234 233 231 232 232 229 224 220